DECAYED
Showing default

LEMUR 2 URAMCHANSOL, 43183 (Decayed)

Orbit data source: Space-Track

LEMUR 2 URAMCHANSOL, 43183 was a payload satellite owned by Spire (US) in LEO that was launched on Thu, 01 Feb 2018 UTC via a SOYUZ-2-1A launch vehicle from the Vostochny Cosmodrome (VOSTO). Payload-class satellites include a variety of spacecraft equipped with specific instruments for various scientific and technological missions. These include communications satellites like Starlink; space stations such as the ISS; scientific satellites like the Hubble; Earth observation satellites from companies like Planet Labs, Umbra, and HawkEye 360; GPS; miniature CubeSats for education and research; and military/defense satellites.

Not visible in the next 10 days
Identifier
43183, 2018-014D
Orbit
Decayed
Country
Flag of USUS
Related business
Manufacturer
Spire/Glasgow
Mission
Decayed Commercial Com/MetRO
Bus & Motor
CUBESAT 3U, Unknown motor
Mass
4.6 kg wet, 4.6 kg dry
Launch date (UTC)
2018-02-01 (8 years ago)
Launch vehicle
SOYUZ-2-1A
Launch site
Vostochny Cosmodrome (VOSTO)
Object type
Payload
Rocket body
Debris
Shape & HBR
Box + 2 Pan, 0.5 m
Radar Cross Section
0.124 m², Small (<0.1 m²)

Expand to show TLE details & history
Last TLE update: 8 months ago

TLE from 8 months ago
0 LEMUR 2 URAMCHANSOL
1 43183U 18014D   25170.50392138  .11173884  26305-5  90952-3 0  9991
2 43183  97.4754  94.9221 0007908 251.7223 108.3216 16.39902852405487
Epoch: 2025-06-19T12:05Z
TLE epoch observation values (Epoch: 2025-06-19T12:05:38.807Z)
Latitude
-0°
Longitude
5.53974°
Altitude
170.941 km
Speed
7.803 km/s
True Right ascension
06h 19m 41s
True Declination
0° 00' 00"
Sunlit
Object was in daylight at epoch
Visualization orbit readout
Latitude
Unknown
Longitude
Unknown
Altitude
Unknown
Speed
Unknown
Apparent Right ascension
Unknown
Apparent Declination
Unknown
Sunlit
N/A
Visualization observer readout
Local Sidereal Time
12:21:54
Azimuth
Unknown
Elevation
Unknown
Doppler factor
Unknown
Orbital elements
Apogee altitude
168.045 km
Perigee altitude
157.699 km
Semi-major axis
6,541.009 km
Eccentricity
0.00079
Inclination
97.4754°
RAAN
94.9221°
Arg. of periapsis
251.7223°
True anomaly
108.4076°
Mean anomaly
108.3216°
Eccentric anomaly
108.3646°
Mean motion
4.10276 °/min
Orbital period
87.75 mins
BSTAR
0.00090952
Loading maneuver chart data...
Computing Atmospheric mass density...
Loading historical data...
Loading historical data...
Loading historical data...
Loading historical data...
Loading historical data...
Loading historical data...
Loading historical data...

Documentation

Showing up to 5 results
|